Вернуться в каталог

STARLINK-6028

АктивенСвязьVLEO
NORAD 56818·PAYLOAD·🇺🇸 United States

Запущен May 31, 2023 с Vandenberg Space Force Base

Loading…

Ближайшие Пролёты (ближайшие 24 часа)

TLE

СвежийSource: CelesTrak SupGP

Эпоха: Sep 15, 2026, 01:37 UTC

1 56818C 23078BD  26258.06784722 -.00045261  00000+0 -37929-2 0  2586
2 56818  70.0015 226.7852 0003767 270.5067  17.1197 14.98353170    13

Отслеживайте STARLINK-6028 в реальном времени с AllMySat

Download on the App Store